Regional Weather Roundup
Issued by NWS

Home | Current Version | Previous Version | Text Only | Print | Product List | Glossary Off
Versions: 1 2 3 4 5 6 7 8 9 10 11 12 13 14 15 16 17 18 19 20 21 22 23 24 25 26 27 28 29 30 31 32 33 34 35 36 37 38 39 40 41 42 43 44 45 46 47 48 49 50

000
ASUS43 KBIS 050702
RWRND

NORTH DAKOTA REGIONAL WEATHER ROUNDUP
NATIONAL WEATHER SERVICE BISMARCK ND
200 AM CDT WED AUG 05 2015

NOTE: "FAIR" INDICATES FEW OR NO CLOUDS BELOW 12,000 FEET WITH NO
SIGNIFICANT WEATHER AND/OR OBSTRUCTIONS TO VISIBILITY.


NDZ001>003-009>011-017-050800-
NORTHWEST NORTH DAKOTA

CITY           SKY/WX    TMP DP  RH WIND       PRES   REMARKS
WILLISTON      CLOUDY    71  59  65 SW6       29.95R
MINOT          MOCLDY    63  54  72 E10       29.96S
MINOT AFB      MOCLDY    61  57  88 SE8       29.95F
$$

NDZ018>021-031>035-040>046-050800-
SOUTHWEST NORTH DAKOTA

CITY           SKY/WX    TMP DP  RH WIND       PRES   REMARKS
BISMARCK       CLOUDY    67  59  75 SE6       29.99S
DICKINSON      LGT RAIN  64  58  80 W7        29.97F
GARRISON         N/A     65  59  81 SE8       29.97S
HETTINGER ARPT CLOUDY    64  60  87 NE9       29.99F
$$

NDZ004>008-012>016-024-026-027-054-050800-
NORTHEAST NORTH DAKOTA

CITY           SKY/WX    TMP DP  RH WIND       PRES   REMARKS
GRAND FORKS    PTCLDY    59  53  80 E6        30.03F
GRND FRKS AFB  PTCLDY    56  53  87 VRB1      30.04F
DEVILS LAKE    PTCLDY    61  50  67 SE8       30.04R
$$

NDZ022-023-025-028>030-036>039-047>053-050800-
SOUTHEAST NORTH DAKOTA

CITY           SKY/WX    TMP DP  RH WIND       PRES   REMARKS
FARGO          CLEAR     59  53  80 SE3       30.03S
JAMESTOWN      PTCLDY    60  54  80 SE6       30.04R
$$




USA.gov is the U.S. government's official web portal to all federal, state and local government web resources and services.